NIMBUS 2 DEB, 25825

Orbit data source: Space-Track

NIMBUS 2 DEB, 25825 is space debris in SSO originally from a launch on Sun, 15 May 1966 UTC launched from the Air Force Western Test Range (AFWTR). Debris objects in space refer to the collection of defunct objects orbiting the Earth. Examples of debris include non-operational satellites, rocket bodies, and fragments generated from explosions, collisions, or faulty payload assembly.

Loading next visibility...
Identifier
25825, 1966-040H
Orbit
SSO
Country
Flag of USUS
Related business
Manufacturer
Unknown
Mission
Spacecraft
Bus & Motor
Unknown
Mass
Unknown
Launch date (UTC)
1966-05-15 (60 years ago)
Launch vehicle
Unknown
Launch site
Air Force Western Test Range (AFWTR)
Object type
Payload
Rocket body
Debris
Shape & HBR
Unknown shape, 0.1 m
Radar Cross Section
Medium (>0.1 m² and <1 m²)

Expand to show TLE details & history
Last TLE update: 3 days ago

TLE from 3 days ago
0 NIMBUS 2 DEB
1 25825U 66040H   26171.17513557  .00002068  00000-0  23804-2 0  9994
2 25825 100.3284 251.5257 0052441 162.2993 227.5663 13.70181210937696
Epoch: 2026-06-20T04:12Z
TLE epoch observation values (Epoch: 2026-06-20T04:12:11.713Z)
Latitude
28.94859°
Longitude
-85.67222°
Altitude
1,028.614 km
Speed
7.327 km/s
True Right ascension
16h 23m 04s
True Declination
28° 48' 31"
Sunlit
Object was in full shadow at epoch
Visualization orbit readout
Latitude
Unknown
Longitude
Unknown
Altitude
Unknown
Speed
Unknown
Apparent Right ascension
Unknown
Apparent Declination
Unknown
Sunlit
N/A
Visualization observer readout
Local Sidereal Time
08:39:29
Azimuth
Unknown
Elevation
Unknown
Doppler factor
Unknown
Orbital elements
Apogee altitude
1,034.9 km
Perigee altitude
957.557 km
Semi-major axis
7,374.365 km
Eccentricity
0.00524
Inclination
100.3284°
RAAN
251.5257°
Arg. of periapsis
162.2993°
True anomaly
227.12474°
Mean anomaly
227.5663°
Eccentric anomaly
227.34532°
Mean motion
3.42733 °/min
Orbital period
105.04 mins
BSTAR
0.0023804
Loading maneuver chart data...
Computing Atmospheric mass density...
Loading historical data...
Loading historical data...
Loading historical data...
Loading historical data...
Loading historical data...
Loading historical data...
Loading historical data...

Documentation

Showing up to 5 results
|